| time (UTC) | temp F | wind direction | speed knots | gust knots | rain 1hr in | rain 24hr in | rain mn in | humidity % | barometer mb |
| 20260508113122 | 74 | 246 | 2.6 | 5.2 | 0.00 | 0.00 | 0.00 | 80 | 1014.5 |
| 20260508112052 | 74 | 252 | 3.5 | 5.2 | 0.00 | 0.00 | 0.00 | 80 | 1014.4 |
| 20260508111033 | 74 | 253 | 3.5 | 5.2 | 0.00 | 0.00 | 0.00 | 80 | 1014.3 |
| 20260508104907 | 74 | 269 | 4.3 | 6.1 | 0.00 | 0.00 | 0.00 | 79 | 1014.1 |
| 20260508103846 | 74 | 272 | 4.3 | 6.1 | 0.00 | 0.00 | 0.00 | 79 | 1013.9 |
| 20260508102857 | 74 | 285 | 5.2 | 6.1 | 0.00 | 0.00 | 0.00 | 79 | 1013.9 |
| 20260508101903 | 74 | 275 | 6.1 | 7.0 | 0.00 | 0.00 | 0.00 | 79 | 1013.8 |
| 20260508100849 | 74 | 267 | 5.2 | 7.0 | 0.00 | 0.00 | 0.00 | 79 | 1013.6 |
| 20260508095904 | 74 | 261 | 5.2 | 6.1 | 0.00 | 0.00 | 0.00 | 79 | 1013.4 |
| 20260508094844 | 74 | 264 | 4.3 | 6.1 | 0.00 | 0.00 | 0.00 | 78 | 1013.4 |
| 20260508093857 | 74 | 255 | 4.3 | 5.2 | 0.00 | 0.00 | 0.00 | 78 | 1013.3 |
| 20260508092833 | 74 | 252 | 3.5 | 5.2 | 0.00 | 0.00 | 0.00 | 78 | 1013.2 |
| 20260508091848 | 74 | 257 | 3.5 | 5.2 | 0.00 | 0.00 | 0.00 | 78 | 1013.2 |
| 20260508090833 | 74 | 253 | 2.6 | 4.3 | 0.00 | 0.00 | 0.00 | 77 | 1013.2 |
| 20260508085855 | 74 | 248 | 2.6 | 4.3 | 0.00 | 0.00 | 0.00 | 77 | 1013.2 |
| 20260508084842 | 74 | 245 | 3.5 | 6.1 | 0.00 | 0.00 | 0.00 | 77 | 1013.1 |
| 20260508082719 | 74 | 225 | 4.3 | 6.1 | 0.00 | 0.00 | 0.00 | 75 | 1013.2 |
| 20260508080618 | 75 | 235 | 3.5 | 6.1 | 0.00 | 0.00 | 0.00 | 73 | 1013.2 |
| 20260508075554 | 75 | 236 | 3.5 | 6.1 | 0.00 | 0.00 | 0.00 | 72 | 1013.2 |
| 20260508074610 | 76 | 236 | 3.5 | 5.2 | 0.00 | 0.00 | 0.00 | 72 | 1013.2 |
| 20260508073547 | 76 | 244 | 4.3 | 5.2 | 0.00 | 0.00 | 0.00 | 71 | 1013.3 |
| 20260508072547 | 76 | 249 | 3.5 | 5.2 | 0.00 | 0.00 | 0.00 | 71 | 1013.4 |
| 20260508070328 | 76 | 244 | 0.9 | 1.7 | 0.00 | 0.00 | 0.00 | 70 | 1013.2 |
| 20260508065331 | 76 | 244 | 0.9 | 3.5 | 0.00 | 0.00 | 0.00 | 70 | 1013.3 |
| 20260508064325 | 77 | 244 | 3.5 | 5.2 | 0.00 | 0.00 | 0.00 | 69 | 1013.3 |
| 20260508063301 | 77 | 269 | 3.5 | 5.2 | 0.00 | 0.00 | 0.00 | 67 | 1013.4 |
| 20260508062256 | 77 | 274 | 2.6 | 5.2 | 0.00 | 0.00 | 0.00 | 66 | 1013.3 |
| 20260508061221 | 77 | 282 | 3.5 | 5.2 | 0.00 | 0.00 | 0.00 | 66 | 1013.4 |
| 20260508060216 | 78 | 273 | 3.5 | 5.2 | 0.00 | 0.00 | 0.00 | 64 | 1013.5 |
| 20260508055239 | 78 | 274 | 4.3 | 6.1 | 0.00 | 0.00 | 0.00 | 64 | 1013.6 |
| 20260508054223 | 78 | 269 | 5.2 | 6.1 | 0.00 | 0.00 | 0.00 | 64 | 1013.7 |
| 20260508053150 | 79 | 280 | 4.3 | 6.1 | 0.00 | 0.00 | 0.00 | 62 | 1013.8 |
| 20260508052134 | 79 | 274 | 3.5 | 5.2 | 0.00 | 0.00 | 0.00 | 61 | 1013.8 |
| 20260508050014 | 80 | 279 | 4.3 | 6.1 | 0.00 | 0.00 | 0.00 | 63 | 1013.9 |
| 20260508045012 | 80 | 288 | 4.3 | 6.1 | 0.00 | 0.00 | 0.00 | 65 | 1013.8 |
| 20260508042844 | 80 | 258 | 3.5 | 5.2 | 0.00 | 0.00 | 0.00 | 73 | 1013.6 |
| 20260508041817 | 79 | 252 | 2.6 | 5.2 | 0.00 | 0.00 | 0.00 | 77 | 1013.6 |
| 20260508040743 | 79 | 238 | 3.5 | 4.3 | 0.00 | 0.00 | 0.00 | 77 | 1013.4 |
| 20260508035713 | 79 | 234 | 2.6 | 4.3 | 0.00 | 0.00 | 0.00 | 79 | 1013.5 |
| 20260508034708 | 79 | 215 | 3.5 | 5.2 | 0.00 | 0.00 | 0.00 | 78 | 1013.5 |
| 20260508033702 | 79 | 220 | 4.3 | 6.1 | 0.00 | 0.00 | 0.00 | 79 | 1013.6 |
| 20260508032641 | 79 | 201 | 5.2 | 6.1 | 0.00 | 0.00 | 0.00 | 79 | 1013.5 |
| 20260508031613 | 80 | 221 | 5.2 | 7.0 | 0.00 | 0.00 | 0.00 | 79 | 1013.5 |
| 20260508030553 | 80 | 201 | 6.1 | 7.8 | 0.00 | 0.00 | 0.00 | 79 | 1013.5 |
| 20260508025606 | 80 | 195 | 6.1 | 7.8 | 0.00 | 0.00 | 0.00 | 78 | 1013.5 |
| 20260508023423 | 80 | 202 | 7.0 | 8.7 | 0.00 | 0.00 | 0.00 | 79 | 1013.3 |
| 20260508021259 | 80 | 185 | 7.0 | 9.6 | 0.00 | 0.00 | 0.00 | 78 | 1013.2 |
| 20260508015122 | 81 | 176 | 7.0 | 11.3 | 0.00 | 0.00 | 0.00 | 78 | 1012.9 |
| 20260508011815 | 81 | 153 | 6.1 | 9.6 | 0.00 | 0.00 | 0.00 | 79 | 1012.8 |
| 20260508010827 | 81 | 139 | 6.1 | 9.6 | 0.00 | 0.00 | 0.00 | 78 | 1012.7 |
| 20260508005847 | 81 | 161 | 6.1 | 11.3 | 0.00 | 0.00 | 0.00 | 79 | 1012.7 |
| 20260508004851 | 81 | 154 | 7.8 | 11.3 | 0.00 | 0.00 | 0.00 | 79 | 1012.7 |
| 20260508002758 | 81 | 140 | 7.0 | 13.9 | 0.00 | 0.00 | 0.00 | 79 | 1012.7 |
| 20260508001811 | 81 | 132 | 8.7 | 13.9 | 0.00 | 0.00 | 0.00 | 79 | 1012.7 |
| 20260508000733 | 81 | 150 | 8.7 | 15.6 | 0.00 | 0.00 | 0.00 | 79 | 1012.6 |
| 20260507235709 | 81 | 152 | 8.7 | 16.5 | 0.00 | 0.00 | 0.00 | 79 | 1012.5 |
| 20260507234637 | 81 | 148 | 8.7 | 17.4 | 0.00 | 0.00 | 0.00 | 78 | 1012.5 |
| 20260507232500 | 82 | 148 | 8.7 | 14.8 | 0.00 | 0.00 | 0.00 | 77 | 1012.5 |
| 20260507231515 | 82 | 144 | 7.0 | 12.2 | 0.00 | 0.00 | 0.00 | 78 | 1012.5 |
| 20260507230455 | 82 | 123 | 6.1 | 12.2 | 0.00 | 0.00 | 0.00 | 77 | 1012.5 |
| 20260507225424 | 82 | 153 | 6.1 | 13.0 | 0.00 | 0.00 | 0.00 | 76 | 1012.4 |
| 20260507223224 | 82 | 133 | 7.0 | 12.2 | 0.00 | 0.00 | 0.00 | 75 | 1012.3 |
| 20260507222241 | 83 | 158 | 7.0 | 12.2 | 0.00 | 0.00 | 0.00 | 75 | 1012.3 |
| 20260507221220 | 83 | 113 | 6.1 | 11.3 | 0.00 | 0.00 | 0.00 | 74 | 1012.4 |
| 20260507220206 | 83 | 133 | 6.1 | 11.3 | 0.00 | 0.00 | 0.00 | 73 | 1012.4 |
| 20260507215147 | 83 | 124 | 7.0 | 11.3 | 0.00 | 0.00 | 0.00 | 73 | 1012.4 |
| 20260507214122 | 82 | 128 | 7.0 | 11.3 | 0.00 | 0.00 | 0.00 | 74 | 1012.4 |
| 20260507205736 | 83 | 152 | 7.0 | 12.2 | 0.00 | 0.00 | 0.00 | 74 | 1012.7 |
| 20260507203549 | 83 | 124 | 7.0 | 12.2 | 0.00 | 0.00 | 0.00 | 74 | 1012.7 |
| 20260507202520 | 83 | 151 | 7.0 | 12.2 | 0.00 | 0.00 | 0.00 | 74 | 1012.8 |
| 20260507201454 | 83 | 133 | 7.0 | 12.2 | 0.00 | 0.00 | 0.00 | 75 | 1012.9 |
| 20260507200429 | 83 | 132 | 6.1 | 10.4 | 0.00 | 0.00 | 0.00 | 74 | 1013.1 |
| 20260507195356 | 83 | 98 | 6.1 | 11.3 | 0.00 | 0.00 | 0.00 | 75 | 1013.3 |
| 20260507194354 | 83 | 112 | 7.0 | 12.2 | 0.00 | 0.00 | 0.00 | 74 | 1013.4 |
| 20260507192231 | 82 | 121 | 6.1 | 11.3 | 0.00 | 0.00 | 0.00 | 74 | 1013.4 |
| 20260507191211 | 82 | 118 | 6.1 | 11.3 | 0.00 | 0.00 | 0.00 | 74 | 1013.8 |
| 20260507185057 | 83 | 96 | 5.2 | 8.7 | 0.00 | 0.00 | 0.00 | 74 | 1014.1 |
| 20260507184042 | 83 | 118 | 4.3 | 9.6 | 0.00 | 0.00 | 0.00 | 74 | 1014.3 |
| 20260507183028 | 82 | 86 | 5.2 | 10.4 | 0.00 | 0.00 | 0.00 | 73 | 1014.5 |
| 20260507181951 | 83 | 131 | 6.1 | 10.4 | 0.00 | 0.00 | 0.00 | 73 | 1014.6 |
| 20260507180935 | 83 | 103 | 5.2 | 9.6 | 0.00 | 0.00 | 0.00 | 69 | 1014.7 |
| 20260507174758 | 82 | 77 | 5.2 | 9.6 | 0.00 | 0.00 | 0.00 | 72 | 1014.8 |
| 20260507173738 | 83 | 99 | 5.2 | 9.6 | 0.00 | 0.00 | 0.00 | 70 | 1014.8 |
| 20260507172746 | 82 | 124 | 6.1 | 9.6 | 0.00 | 0.00 | 0.00 | 74 | 1014.8 |
| 20260507171733 | 82 | 123 | 5.2 | 9.6 | 0.00 | 0.00 | 0.00 | 73 | 1014.9 |
| 20260507170742 | 82 | 115 | 5.2 | 9.6 | 0.00 | 0.00 | 0.00 | 74 | 1015.0 |
| 20260507164628 | 82 | 105 | 5.2 | 9.6 | 0.00 | 0.00 | 0.00 | 72 | 1015.1 |
| 20260507163629 | 84 | 144 | 4.3 | 9.6 | 0.00 | 0.00 | 0.00 | 70 | 1015.3 |
| 20260507161510 | 84 | 171 | 2.6 | 5.2 | 0.00 | 0.00 | 0.00 | 67 | 1015.5 |
| 20260507160522 | 84 | 173 | 0.0 | 0.0 | 0.00 | 0.00 | 0.00 | 65 | 1015.6 |
| 20260507155454 | 83 | 187 | 1.7 | 4.3 | 0.00 | 0.00 | 0.00 | 66 | 1015.8 |
| 20260507154459 | 83 | 202 | 1.7 | 5.2 | 0.00 | 0.00 | 0.00 | 68 | 1015.8 |
| 20260507152318 | 82 | 200 | 4.3 | 7.0 | 0.00 | 0.00 | 0.00 | 68 | 1015.9 |
| 20260507151338 | 82 | 211 | 5.2 | 9.6 | 0.00 | 0.00 | 0.00 | 69 | 1016.0 |
| 20260507145201 | 81 | 193 | 7.0 | 8.7 | 0.00 | 0.00 | 0.00 | 71 | 1016.1 |
| 20260507144153 | 81 | 205 | 7.0 | 8.7 | 0.00 | 0.00 | 0.00 | 70 | 1016.1 |
| 20260507143206 | 80 | 211 | 7.0 | 8.7 | 0.00 | 0.00 | 0.00 | 70 | 1016.1 |
| 20260507142140 | 80 | 205 | 7.0 | 8.7 | 0.00 | 0.00 | 0.00 | 72 | 1016.2 |
| 20260507141111 | 80 | 218 | 7.0 | 8.7 | 0.00 | 0.00 | 0.00 | 72 | 1016.1 |
| 20260507140055 | 80 | 205 | 7.0 | 10.4 | 0.00 | 0.00 | 0.00 | 71 | 1016.3 |
| 20260507135058 | 79 | 215 | 7.8 | 10.4 | 0.00 | 0.00 | 0.00 | 69 | 1016.2 |
| 20260507134030 | 79 | 192 | 6.1 | 9.6 | 0.00 | 0.00 | 0.00 | 72 | 1016.1 |
| 20260507133034 | 78 | 186 | 5.2 | 7.8 | 0.00 | 0.00 | 0.00 | 74 | 1016.1 |
| 20260507131003 | 77 | 176 | 3.5 | 5.2 | 0.00 | 0.00 | 0.00 | 77 | 1016.2 |
| 20260507125933 | 77 | 176 | 3.5 | 5.2 | 0.00 | 0.00 | 0.00 | 77 | 1016.3 |
| 20260507124948 | 76 | 178 | 3.5 | 5.2 | 0.00 | 0.00 | 0.00 | 78 | 1016.3 |
| 20260507123924 | 76 | 203 | 5.2 | 6.1 | 0.00 | 0.00 | 0.00 | 78 | 1016.3 |
| 20260507122859 | 75 | 200 | 5.2 | 7.0 | 0.00 | 0.00 | 0.00 | 80 | 1016.3 |
| 20260507121847 | 75 | 190 | 4.3 | 7.0 | 0.00 | 0.00 | 0.00 | 80 | 1016.2 |
| 20260507115730 | 74 | 198 | 3.5 | 5.2 | 0.00 | 0.00 | 0.00 | 82 | 1016.2 |
| 20260507114746 | 74 | 209 | 2.6 | 3.5 | 0.00 | 0.00 | 0.00 | 83 | 1016.2 |
| 20260507113724 | 74 | 213 | 3.5 | 4.3 | 0.00 | 0.00 | 0.00 | 83 | 1016.1 |